AAL1608 KBOS-KDCA

Flight info

Callsign AAL1608
Flight time 1h 27m
Altitude 38000
Route SSOXS7 SSOXS Q167 ZIZZI KNUKK ATR LAFLN DEALE3
Aircraft A319/M-SDE3FGHIRWY/LB1

Departure

Time 2026-05-07 18:18
Airport Boston Logan International Airport (KBOS)

Arrival

Time 2026-05-07 19:45
Airport Ronald Reagan Washington National Airport (KDCA)
Time Latitude Longitude Altitude Speed Heading
2026-05-07 17:30 42.36357 -71.02161 29 ft 0 kts 38°
2026-05-07 18:02 42.36346 -71.02173 31 ft 4 kts 38°
2026-05-07 18:03 42.36329 -71.02192 29 ft 3 kts 38°
2026-05-07 18:03 42.36311 -71.02216 30 ft 4 kts 73°
2026-05-07 18:03 42.36313 -71.02246 27 ft 4 kts 122°
2026-05-07 18:03 42.36320 -71.02262 27 ft 0 kts 122°
2026-05-07 18:06 42.36320 -71.02261 27 ft 1 kts 122°
2026-05-07 18:06 42.36303 -71.02240 29 ft 5 kts 149°
2026-05-07 18:06 42.36254 -71.02240 27 ft 9 kts 196°
2026-05-07 18:07 42.36179 -71.02273 25 ft 14 kts 195°
2026-05-07 18:07 42.36098 -71.02224 25 ft 13 kts 126°
2026-05-07 18:07 42.36046 -71.02107 27 ft 16 kts 121°
2026-05-07 18:07 42.35999 -71.02001 28 ft 14 kts 121°
2026-05-07 18:08 42.35941 -71.01871 27 ft 18 kts 121°
2026-05-07 18:08 42.35904 -71.01721 29 ft 16 kts 101°
2026-05-07 18:08 42.35892 -71.01583 29 ft 14 kts 73°
2026-05-07 18:08 42.35978 -71.01505 27 ft 17 kts 22°
2026-05-07 18:09 42.36094 -71.01451 28 ft 17 kts 17°
2026-05-07 18:09 42.36205 -71.01397 25 ft 12 kts 21°
2026-05-07 18:09 42.36296 -71.01352 27 ft 14 kts 20°
2026-05-07 18:09 42.36309 -71.01233 25 ft 16 kts 114°
2026-05-07 18:10 42.36244 -71.01095 28 ft 19 kts 120°
2026-05-07 18:10 42.36203 -71.00982 27 ft 0 kts 115°
2026-05-07 18:12 42.36194 -71.00957 26 ft 8 kts 113°
2026-05-07 18:12 42.36168 -71.00872 25 ft 12 kts 112°
2026-05-07 18:12 42.36132 -71.00757 27 ft 15 kts 112°
2026-05-07 18:12 42.36094 -71.00615 28 ft 18 kts 109°
2026-05-07 18:13 42.36057 -71.00465 29 ft 17 kts 108°
2026-05-07 18:13 42.36015 -71.00303 29 ft 16 kts 109°
2026-05-07 18:13 42.35978 -71.00159 26 ft 16 kts 110°
2026-05-07 18:13 42.35914 -71.00024 27 ft 16 kts 134°
2026-05-07 18:14 42.35907 -71.00014 26 ft 0 kts 135°
2026-05-07 18:14 42.35901 -71.00006 25 ft 3 kts 135°
2026-05-07 18:14 42.35876 -70.99973 27 ft 7 kts 135°
2026-05-07 18:14 42.35811 -70.99886 26 ft 19 kts 135°
2026-05-07 18:15 42.35709 -70.99750 25 ft 22 kts 135°
2026-05-07 18:15 42.35588 -70.99591 25 ft 26 kts 135°
2026-05-07 18:15 42.35496 -70.99461 27 ft 14 kts 123°
2026-05-07 18:15 42.35492 -70.99386 25 ft 0 kts 77°
2026-05-07 18:16 42.35493 -70.99380 25 ft 2 kts 77°
2026-05-07 18:16 42.35502 -70.99327 30 ft 8 kts 77°
2026-05-07 18:16 42.35541 -70.99278 25 ft 7 kts 351°
2026-05-07 18:16 42.35561 -70.99297 25 ft 0 kts 315°
2026-05-07 18:17 42.35580 -70.99322 25 ft 22 kts 315°
2026-05-07 18:17 42.35857 -70.99693 26 ft 87 kts 315°
2026-05-07 18:17 42.36427 -71.00461 29 ft 142 kts 314°
2026-05-07 18:18 42.37207 -71.01511 298 ft 165 kts 312°
2026-05-07 18:18 42.38032 -71.02624 931 ft 168 kts 311°
2026-05-07 18:18 42.38653 -71.03929 1749 ft 163 kts 295°
2026-05-07 18:18 42.39193 -71.05351 2252 ft 180 kts 297°
2026-05-07 18:19 42.39822 -71.06927 2692 ft 200 kts 298°
2026-05-07 18:19 42.40501 -71.08689 3073 ft 223 kts 294°
2026-05-07 18:19 42.40602 -71.10748 3881 ft 233 kts 255°
2026-05-07 18:19 42.39705 -71.12727 4439 ft 256 kts 235°
2026-05-07 18:20 42.38980 -71.13996 5081 ft 259 kts 236°
2026-05-07 18:20 42.37896 -71.15987 5999 ft 263 kts 238°
2026-05-07 18:20 42.36814 -71.17951 7095 ft 260 kts 232°
2026-05-07 18:20 42.35362 -71.19449 8032 ft 272 kts 211°
2026-05-07 18:21 42.33461 -71.19961 8908 ft 292 kts 185°
2026-05-07 18:21 42.31466 -71.19177 9860 ft 307 kts 163°
2026-05-07 18:21 42.29509 -71.17945 10464 ft 317 kts 166°
2026-05-07 18:21 42.27396 -71.16794 10667 ft 340 kts 166°
2026-05-07 18:22 42.25210 -71.15295 10970 ft 364 kts 156°
2026-05-07 18:22 42.23817 -71.13961 11371 ft 375 kts 149°
2026-05-07 18:22 42.21143 -71.10890 12286 ft 380 kts 148°
2026-05-07 18:22 42.19132 -71.08551 12971 ft 382 kts 148°
2026-05-07 18:23 42.17116 -71.06198 13639 ft 385 kts 149°
2026-05-07 18:23 42.15073 -71.03868 13919 ft 382 kts 153°
2026-05-07 18:23 42.12953 -71.01835 13995 ft 379 kts 155°
2026-05-07 18:23 42.10791 -70.99805 14011 ft 378 kts 155°
2026-05-07 18:24 42.08617 -70.97775 14340 ft 382 kts 155°
2026-05-07 18:24 42.06424 -70.95737 14987 ft 383 kts 155°
2026-05-07 18:24 42.04230 -70.93700 15573 ft 385 kts 155°
2026-05-07 18:24 42.02016 -70.91643 16154 ft 388 kts 155°
2026-05-07 18:25 41.99789 -70.89572 16741 ft 390 kts 155°
2026-05-07 18:25 41.97550 -70.87489 17323 ft 393 kts 155°
2026-05-07 18:25 41.95291 -70.85390 17914 ft 395 kts 155°
2026-05-07 18:25 41.93029 -70.83293 18434 ft 398 kts 156°
2026-05-07 18:26 41.90736 -70.81173 18911 ft 401 kts 157°
2026-05-07 18:26 41.88349 -70.79378 19381 ft 389 kts 168°
2026-05-07 18:26 41.85817 -70.78286 19869 ft 375 kts 180°
2026-05-07 18:26 41.83274 -70.77887 20380 ft 362 kts 191°
2026-05-07 18:27 41.80833 -70.78101 20880 ft 350 kts 200°
2026-05-07 18:27 41.78511 -70.78861 21393 ft 339 kts 209°
2026-05-07 18:27 41.76374 -70.80101 21918 ft 329 kts 217°
2026-05-07 18:27 41.74386 -70.81606 22432 ft 328 kts 218°
2026-05-07 18:28 41.72394 -70.83112 22933 ft 328 kts 219°
2026-05-07 18:28 41.70406 -70.84606 23426 ft 328 kts 219°
2026-05-07 18:28 41.68679 -70.85942 23764 ft 327 kts 220°
2026-05-07 18:28 41.66707 -70.87466 24140 ft 329 kts 219°
2026-05-07 18:29 41.64710 -70.88955 24505 ft 330 kts 218°
2026-05-07 18:29 41.62683 -70.90441 24878 ft 331 kts 218°
2026-05-07 18:29 41.60659 -70.91922 25222 ft 332 kts 218°
2026-05-07 18:29 41.58631 -70.93414 25565 ft 333 kts 219°
2026-05-07 18:30 41.56631 -70.94913 25899 ft 332 kts 221°
2026-05-07 18:30 41.54817 -70.96750 26234 ft 324 kts 230°
2026-05-07 18:30 41.53395 -70.98879 26555 ft 320 kts 237°
2026-05-07 18:30 41.52201 -71.01215 26871 ft 320 kts 239°
2026-05-07 18:31 41.50958 -71.03691 27205 ft 321 kts 239°
2026-05-07 18:31 41.49720 -71.06169 27529 ft 322 kts 239°
2026-05-07 18:31 41.48474 -71.08664 27836 ft 323 kts 239°
2026-05-07 18:31 41.47228 -71.11159 28144 ft 324 kts 239°
2026-05-07 18:32 41.45975 -71.13665 28446 ft 325 kts 239°
2026-05-07 18:32 41.44716 -71.16176 28736 ft 326 kts 239°
2026-05-07 18:32 41.43450 -71.18693 29017 ft 327 kts 239°
2026-05-07 18:32 41.42180 -71.21216 29294 ft 328 kts 239°
2026-05-07 18:33 41.40905 -71.23744 29596 ft 329 kts 239°
2026-05-07 18:33 41.39649 -71.26236 29983 ft 327 kts 239°
2026-05-07 18:33 41.38387 -71.28739 30324 ft 325 kts 239°
2026-05-07 18:33 41.37128 -71.31234 30654 ft 324 kts 239°
2026-05-07 18:34 41.35871 -71.33717 30980 ft 323 kts 239°
2026-05-07 18:34 41.34620 -71.36190 31326 ft 322 kts 239°
2026-05-07 18:34 41.33375 -71.38656 31648 ft 320 kts 239°
2026-05-07 18:34 41.32134 -71.41115 31982 ft 319 kts 239°
2026-05-07 18:35 41.30894 -71.43565 32320 ft 318 kts 239°
2026-05-07 18:35 41.29661 -71.46003 32661 ft 317 kts 239°
2026-05-07 18:35 41.28435 -71.48431 33004 ft 316 kts 239°
2026-05-07 18:35 41.27211 -71.50853 33359 ft 315 kts 240°
2026-05-07 18:36 41.25990 -71.53265 33708 ft 314 kts 240°
2026-05-07 18:36 41.24772 -71.55662 34029 ft 313 kts 240°
2026-05-07 18:36 41.23557 -71.58051 34313 ft 312 kts 240°
2026-05-07 18:36 41.22341 -71.60442 34569 ft 312 kts 240°
2026-05-07 18:37 41.21127 -71.62828 34813 ft 312 kts 240°
2026-05-07 18:37 41.19912 -71.65215 35054 ft 312 kts 240°
2026-05-07 18:37 41.18697 -71.67597 35290 ft 312 kts 240°
2026-05-07 18:37 41.17494 -71.69949 35520 ft 312 kts 240°
2026-05-07 18:38 41.16261 -71.72356 35749 ft 312 kts 240°
2026-05-07 18:38 41.15057 -71.74703 35966 ft 312 kts 240°
2026-05-07 18:38 41.13841 -71.77083 36211 ft 311 kts 240°
2026-05-07 18:38 41.12630 -71.79465 36438 ft 311 kts 240°
2026-05-07 18:39 41.11423 -71.81848 36639 ft 311 kts 240°
2026-05-07 18:39 41.10217 -71.84231 36851 ft 311 kts 240°
2026-05-07 18:39 41.09010 -71.86611 37049 ft 311 kts 240°
2026-05-07 18:39 41.07798 -71.88989 37266 ft 311 kts 240°
2026-05-07 18:40 41.06586 -71.91365 37454 ft 311 kts 240°
2026-05-07 18:40 41.05374 -71.93738 37659 ft 311 kts 240°
2026-05-07 18:40 41.04164 -71.96106 37833 ft 311 kts 240°
2026-05-07 18:41 41.02165 -72.01145 37880 ft 308 kts 246°
2026-05-07 18:41 41.00367 -72.06261 37876 ft 308 kts 246°
2026-05-07 18:42 40.98554 -72.11408 37870 ft 308 kts 246°
2026-05-07 18:42 40.96736 -72.16548 37865 ft 308 kts 246°
2026-05-07 18:43 40.94918 -72.21681 37858 ft 308 kts 246°
2026-05-07 18:43 40.93097 -72.26820 37855 ft 308 kts 246°
2026-05-07 18:44 40.91038 -72.31778 37852 ft 312 kts 236°
2026-05-07 18:44 40.87972 -72.35875 37844 ft 316 kts 232°
2026-05-07 18:45 40.84847 -72.39949 37520 ft 315 kts 232°
2026-05-07 18:45 40.83287 -72.41993 37173 ft 316 kts 232°
2026-05-07 18:45 40.81724 -72.44038 36826 ft 317 kts 232°
2026-05-07 18:45 40.80150 -72.46079 36481 ft 318 kts 230°
2026-05-07 18:46 40.78440 -72.47970 36139 ft 321 kts 228°
2026-05-07 18:46 40.76713 -72.49844 35792 ft 321 kts 228°
2026-05-07 18:46 40.74985 -72.51716 35442 ft 322 kts 228°
2026-05-07 18:46 40.73255 -72.53591 35089 ft 322 kts 228°
2026-05-07 18:47 40.71526 -72.55465 34729 ft 322 kts 228°
2026-05-07 18:47 40.69789 -72.57340 34365 ft 323 kts 228°
2026-05-07 18:47 40.68059 -72.59222 34004 ft 322 kts 229°
2026-05-07 18:47 40.66384 -72.61118 33871 ft 321 kts 229°
2026-05-07 18:48 40.64711 -72.63058 33883 ft 321 kts 230°
2026-05-07 18:48 40.61362 -72.66965 33888 ft 322 kts 230°
2026-05-07 18:49 40.57992 -72.70857 33890 ft 322 kts 229°
2026-05-07 18:49 40.54617 -72.74730 33890 ft 322 kts 229°
2026-05-07 18:50 40.51229 -72.78601 33891 ft 323 kts 229°
2026-05-07 18:50 40.47837 -72.82474 33886 ft 323 kts 229°
2026-05-07 18:51 40.44444 -72.86351 33890 ft 323 kts 229°
2026-05-07 18:51 40.41048 -72.90231 33894 ft 324 kts 229°
2026-05-07 18:52 40.37649 -72.94099 33894 ft 324 kts 229°
2026-05-07 18:52 40.34251 -72.97964 33883 ft 323 kts 229°
2026-05-07 18:53 40.30852 -73.01824 33869 ft 323 kts 229°
2026-05-07 18:53 40.27451 -73.05682 33868 ft 323 kts 229°
2026-05-07 18:54 40.24053 -73.09530 33868 ft 323 kts 229°
2026-05-07 18:54 40.20645 -73.13378 33871 ft 324 kts 229°
2026-05-07 18:55 40.17261 -73.17203 33871 ft 324 kts 229°
2026-05-07 18:55 40.14214 -73.20650 33866 ft 324 kts 229°
2026-05-07 18:56 40.10989 -73.24277 33868 ft 324 kts 229°
2026-05-07 18:56 40.07862 -73.27787 33870 ft 324 kts 229°
2026-05-07 18:57 40.04614 -73.31432 33869 ft 324 kts 229°
2026-05-07 18:57 40.01184 -73.35270 33869 ft 325 kts 229°
2026-05-07 18:58 39.97752 -73.39106 33867 ft 325 kts 229°
2026-05-07 18:58 39.94342 -73.42922 33866 ft 325 kts 228°
2026-05-07 18:59 39.91075 -73.46562 33865 ft 326 kts 229°
2026-05-07 18:59 39.87750 -73.50284 33865 ft 326 kts 228°
2026-05-07 19:00 39.84301 -73.54119 33874 ft 326 kts 228°
2026-05-07 19:00 39.80855 -73.57948 33868 ft 326 kts 228°
2026-05-07 19:01 39.77394 -73.61801 33868 ft 326 kts 228°
2026-05-07 19:01 39.73940 -73.65641 33876 ft 327 kts 228°
2026-05-07 19:02 39.70478 -73.69480 33877 ft 327 kts 228°
2026-05-07 19:02 39.67037 -73.73293 33871 ft 327 kts 228°
2026-05-07 19:03 39.63547 -73.77151 33875 ft 328 kts 228°
2026-05-07 19:03 39.60098 -73.80967 33872 ft 328 kts 228°
2026-05-07 19:04 39.56620 -73.84801 33873 ft 328 kts 228°
2026-05-07 19:04 39.53134 -73.88636 33872 ft 329 kts 228°
2026-05-07 19:05 39.49650 -73.92480 33872 ft 329 kts 228°
2026-05-07 19:05 39.46156 -73.96316 33875 ft 329 kts 228°
2026-05-07 19:06 39.42657 -74.00152 33875 ft 330 kts 228°
2026-05-07 19:06 39.37398 -74.05912 33878 ft 330 kts 228°
2026-05-07 19:07 39.33886 -74.09754 33882 ft 331 kts 228°
2026-05-07 19:07 39.30368 -74.13593 33875 ft 331 kts 227°
2026-05-07 19:08 39.26866 -74.17410 33872 ft 332 kts 227°
2026-05-07 19:08 39.23337 -74.21252 33869 ft 332 kts 227°
2026-05-07 19:09 39.19802 -74.25096 33870 ft 332 kts 227°
2026-05-07 19:09 39.16258 -74.28942 33868 ft 333 kts 227°
2026-05-07 19:10 39.12703 -74.32786 33877 ft 334 kts 227°
2026-05-07 19:10 39.09143 -74.36629 33879 ft 334 kts 227°
2026-05-07 19:11 39.05578 -74.40484 33876 ft 335 kts 227°
2026-05-07 19:11 39.02030 -74.44314 33887 ft 335 kts 227°
2026-05-07 19:12 38.98453 -74.48168 33884 ft 335 kts 227°
2026-05-07 19:12 38.95094 -74.52245 33895 ft 328 kts 237°
2026-05-07 19:13 38.93382 -74.56540 33900 ft 325 kts 251°
2026-05-07 19:13 38.92276 -74.62195 33913 ft 326 kts 253°
2026-05-07 19:14 38.91172 -74.67852 33917 ft 326 kts 253°
2026-05-07 19:14 38.90065 -74.73501 33919 ft 326 kts 253°
2026-05-07 19:15 38.88971 -74.79145 33918 ft 326 kts 254°
2026-05-07 19:15 38.87904 -74.84802 33919 ft 326 kts 254°
2026-05-07 19:16 38.86843 -74.90446 33918 ft 325 kts 254°
2026-05-07 19:16 38.85777 -74.96062 33590 ft 326 kts 254°
2026-05-07 19:17 38.85239 -74.98890 33316 ft 327 kts 254°
2026-05-07 19:17 38.84700 -75.01722 33074 ft 328 kts 254°
2026-05-07 19:17 38.84157 -75.04567 32814 ft 328 kts 254°
2026-05-07 19:17 38.83740 -75.06755 32605 ft 329 kts 254°
2026-05-07 19:18 38.83281 -75.09496 32380 ft 331 kts 258°
2026-05-07 19:18 38.82864 -75.12401 31804 ft 333 kts 255°
2026-05-07 19:18 38.82307 -75.15302 31130 ft 337 kts 253°
2026-05-07 19:18 38.81685 -75.18229 30386 ft 343 kts 252°
2026-05-07 19:19 38.81082 -75.21220 29484 ft 352 kts 256°
2026-05-07 19:19 38.80775 -75.24390 28455 ft 360 kts 259°
2026-05-07 19:19 38.80550 -75.27567 27455 ft 357 kts 260°
2026-05-07 19:19 38.80355 -75.30721 26667 ft 351 kts 260°
2026-05-07 19:20 38.80179 -75.33770 25980 ft 344 kts 260°
2026-05-07 19:20 38.80002 -75.36830 25304 ft 347 kts 260°
2026-05-07 19:20 38.79813 -75.39926 24615 ft 351 kts 259°
2026-05-07 19:20 38.79617 -75.43062 23922 ft 355 kts 259°
2026-05-07 19:21 38.79415 -75.46241 23176 ft 360 kts 259°
2026-05-07 19:21 38.79212 -75.49446 22446 ft 361 kts 260°
2026-05-07 19:21 38.79009 -75.52661 21745 ft 362 kts 260°
2026-05-07 19:21 38.78804 -75.55876 21062 ft 362 kts 261°
2026-05-07 19:22 38.78597 -75.59084 20403 ft 361 kts 261°
2026-05-07 19:22 38.78393 -75.62269 19845 ft 357 kts 261°
2026-05-07 19:22 38.78190 -75.65440 19201 ft 356 kts 262°
2026-05-07 19:22 38.77988 -75.68590 18583 ft 354 kts 262°
2026-05-07 19:23 38.77786 -75.71733 17974 ft 353 kts 262°
2026-05-07 19:23 38.77586 -75.74850 17458 ft 348 kts 262°
2026-05-07 19:23 38.77384 -75.77929 16860 ft 346 kts 262°
2026-05-07 19:23 38.77177 -75.81005 16266 ft 345 kts 262°
2026-05-07 19:24 38.76972 -75.84064 15684 ft 345 kts 263°
2026-05-07 19:24 38.76765 -75.87138 15080 ft 346 kts 263°
2026-05-07 19:24 38.76557 -75.90219 14453 ft 348 kts 263°
2026-05-07 19:24 38.76349 -75.93288 13922 ft 346 kts 263°
2026-05-07 19:25 38.76141 -75.96373 13377 ft 345 kts 263°
2026-05-07 19:25 38.75940 -75.99352 12602 ft 337 kts 263°
2026-05-07 19:25 38.75739 -76.02308 11864 ft 327 kts 264°
2026-05-07 19:25 38.75546 -76.05164 11264 ft 315 kts 264°
2026-05-07 19:26 38.75577 -76.07929 10771 ft 309 kts 275°
2026-05-07 19:26 38.75858 -76.10702 10549 ft 317 kts 275°
2026-05-07 19:26 38.76125 -76.13503 10309 ft 317 kts 275°
2026-05-07 19:26 38.76380 -76.16305 10069 ft 316 kts 275°
2026-05-07 19:27 38.76632 -76.19079 9912 ft 307 kts 275°
2026-05-07 19:27 38.76877 -76.21718 9959 ft 290 kts 275°
2026-05-07 19:27 38.77110 -76.24215 9968 ft 273 kts 275°
2026-05-07 19:27 38.77328 -76.26544 9970 ft 255 kts 274°
2026-05-07 19:28 38.77535 -76.28780 9976 ft 251 kts 274°
2026-05-07 19:28 38.77738 -76.30987 9975 ft 249 kts 274°
2026-05-07 19:28 38.77940 -76.33197 9984 ft 249 kts 274°
2026-05-07 19:28 38.78140 -76.35369 9975 ft 249 kts 274°
2026-05-07 19:29 38.78343 -76.37571 9978 ft 249 kts 274°
2026-05-07 19:29 38.78545 -76.39774 9987 ft 249 kts 274°
2026-05-07 19:29 38.78745 -76.41978 9981 ft 249 kts 274°
2026-05-07 19:29 38.78944 -76.44184 9986 ft 249 kts 274°
2026-05-07 19:30 38.79142 -76.46388 9981 ft 249 kts 274°
2026-05-07 19:30 38.79341 -76.48593 9981 ft 249 kts 274°
2026-05-07 19:30 38.79541 -76.50795 9982 ft 249 kts 274°
2026-05-07 19:30 38.79743 -76.52997 9973 ft 249 kts 274°
2026-05-07 19:31 38.79893 -76.55206 9791 ft 249 kts 272°
2026-05-07 19:31 38.79977 -76.57409 9544 ft 247 kts 270°
2026-05-07 19:31 38.80039 -76.59608 9312 ft 247 kts 271°
2026-05-07 19:31 38.80097 -76.61819 9089 ft 248 kts 271°
2026-05-07 19:32 38.80158 -76.64020 8864 ft 247 kts 271°
2026-05-07 19:32 38.80224 -76.66199 8638 ft 248 kts 271°
2026-05-07 19:32 38.80294 -76.68413 8415 ft 249 kts 271°
2026-05-07 19:32 38.80367 -76.70639 8186 ft 251 kts 272°
2026-05-07 19:33 38.80440 -76.72884 7951 ft 251 kts 272°
2026-05-07 19:33 38.80512 -76.75117 7722 ft 250 kts 272°
2026-05-07 19:33 38.80786 -76.77315 7497 ft 251 kts 285°
2026-05-07 19:33 38.81472 -76.79381 7264 ft 253 kts 297°
2026-05-07 19:34 38.82514 -76.81212 7041 ft 256 kts 306°
2026-05-07 19:34 38.83632 -76.82992 6804 ft 256 kts 306°
2026-05-07 19:34 38.84745 -76.84773 6566 ft 255 kts 307°
2026-05-07 19:34 38.85851 -76.86553 6340 ft 255 kts 307°
2026-05-07 19:35 38.86945 -76.88321 6092 ft 256 kts 307°
2026-05-07 19:35 38.88088 -76.90080 5857 ft 257 kts 313°
2026-05-07 19:35 38.89361 -76.91697 5622 ft 257 kts 314°
2026-05-07 19:35 38.90633 -76.93319 5396 ft 258 kts 314°
2026-05-07 19:36 38.91905 -76.94944 5174 ft 258 kts 314°
2026-05-07 19:36 38.93176 -76.96569 4923 ft 256 kts 315°
2026-05-07 19:36 38.94430 -76.98176 4689 ft 255 kts 315°
2026-05-07 19:36 38.95689 -76.99788 4459 ft 255 kts 315°
2026-05-07 19:37 38.96947 -77.01401 4227 ft 255 kts 315°
2026-05-07 19:37 38.98206 -77.03014 3995 ft 256 kts 315°
2026-05-07 19:37 38.99466 -77.04627 3760 ft 256 kts 315°
2026-05-07 19:37 39.00724 -77.06240 3586 ft 253 kts 315°
2026-05-07 19:38 39.01959 -77.07828 3451 ft 249 kts 315°
2026-05-07 19:38 39.03174 -77.09391 3321 ft 246 kts 315°
2026-05-07 19:38 39.04385 -77.10940 3167 ft 244 kts 314°
2026-05-07 19:38 39.05242 -77.12753 2969 ft 244 kts 285°
2026-05-07 19:39 39.05394 -77.14965 2789 ft 246 kts 270°
2026-05-07 19:39 39.05065 -77.17068 2659 ft 246 kts 247°
2026-05-07 19:39 39.04037 -77.18807 2680 ft 242 kts 219°
2026-05-07 19:39 39.02594 -77.19747 2871 ft 228 kts 194°
2026-05-07 19:40 39.01047 -77.19821 2943 ft 222 kts 169°
2026-05-07 19:40 38.99623 -77.19080 2756 ft 225 kts 144°
2026-05-07 19:40 38.98481 -77.17741 2697 ft 216 kts 135°
2026-05-07 19:40 38.97438 -77.16459 2639 ft 197 kts 136°
2026-05-07 19:41 38.96492 -77.15306 2650 ft 178 kts 136°
2026-05-07 19:41 38.95612 -77.14294 2547 ft 159 kts 139°
2026-05-07 19:41 38.94811 -77.13413 2380 ft 146 kts 139°
2026-05-07 19:41 38.94047 -77.12575 2222 ft 143 kts 139°
2026-05-07 19:42 38.93295 -77.11774 2005 ft 139 kts 144°
2026-05-07 19:42 38.92478 -77.11119 1837 ft 138 kts 148°
2026-05-07 19:42 38.91668 -77.10459 1652 ft 137 kts 148°
2026-05-07 19:42 38.90977 -77.09632 1465 ft 137 kts 125°
2026-05-07 19:43 38.90571 -77.08534 1272 ft 136 kts 109°
2026-05-07 19:43 38.90237 -77.07400 1080 ft 135 kts 110°
2026-05-07 19:43 38.89731 -77.06402 869 ft 134 kts 136°
2026-05-07 19:43 38.89043 -77.05626 682 ft 131 kts 139°
2026-05-07 19:44 38.88368 -77.04857 471 ft 128 kts 140°
2026-05-07 19:44 38.87638 -77.04244 268 ft 124 kts 161°
2026-05-07 19:44 38.86807 -77.03966 213 ft 125 kts 169°
2026-05-07 19:44 38.85954 -77.03852 65 ft 122 kts 174°
2026-05-07 19:45 38.85137 -77.03789 21 ft 107 kts 175°
2026-05-07 19:45 38.84694 -77.03729 21 ft 29 kts 175°
2026-05-07 19:45 38.84472 -77.03713 20 ft 30 kts 182°
2026-05-07 19:45 38.84416 -77.03824 23 ft 17 kts 323°
2026-05-07 19:46 38.84545 -77.03856 20 ft 22 kts 356°
2026-05-07 19:46 38.84674 -77.03871 22 ft 17 kts 354°
2026-05-07 19:46 38.84759 -77.03878 21 ft 10 kts 356°
2026-05-07 19:46 38.84851 -77.03886 19 ft 17 kts 355°
2026-05-07 19:47 38.84965 -77.03899 18 ft 18 kts 355°
2026-05-07 19:47 38.85057 -77.03908 19 ft 12 kts 355°
2026-05-07 19:47 38.85150 -77.03917 19 ft 14 kts 355°
2026-05-07 19:47 38.85243 -77.03926 19 ft 13 kts 355°
2026-05-07 19:48 38.85330 -77.03935 20 ft 12 kts 355°
2026-05-07 19:48 38.85401 -77.03943 21 ft 9 kts 355°
2026-05-07 19:48 38.85474 -77.03951 23 ft 14 kts 356°
2026-05-07 19:48 38.85567 -77.03963 24 ft 12 kts 347°
2026-05-07 19:49 38.85633 -77.04013 25 ft 10 kts 322°
2026-05-07 19:49 38.85684 -77.04063 27 ft 12 kts 323°
2026-05-07 19:49 38.85738 -77.04147 27 ft 12 kts 274°
2026-05-07 19:49 38.85723 -77.04225 26 ft 6 kts 255°
2026-05-07 19:50 38.85698 -77.04264 27 ft 5 kts 203°
2026-05-07 19:50 38.85667 -77.04264 28 ft 4 kts 173°
2026-05-07 19:50 38.85665 -77.04263 26 ft 0 kts 171°